| time (UTC) | temp F | wind direction | speed MPH | gust MPH | rain 1hr in | rain 24hr in | rain mn in | humidity % | barometer mb |
| 20260507003742 | 60 | 58 | 0.0 | 3.0 | 0.00 | 0.12 | 0.12 | 83 | 1014.0 |
| 20260507003233 | 60 | 46 | 0.0 | 3.0 | 0.00 | 0.12 | 0.12 | 82 | 1013.9 |
| 20260507002722 | 60 | 47 | 0.0 | 2.0 | 0.00 | 0.12 | 0.12 | 82 | 1013.9 |
| 20260507002216 | 60 | 48 | 0.0 | 1.0 | 0.00 | 0.12 | 0.12 | 82 | 1013.9 |
| 20260507001716 | 60 | 48 | 0.0 | 3.0 | 0.00 | 0.12 | 0.12 | 82 | 1014.0 |
| 20260507001206 | 60 | 47 | 0.0 | 3.0 | 0.00 | 0.12 | 0.12 | 82 | 1013.8 |
| 20260507000656 | 60 | 47 | 1.0 | 3.0 | 0.00 | 0.12 | 0.12 | 82 | 1013.7 |
| 20260507000147 | 60 | 47 | 1.0 | 3.0 | 0.00 | 0.12 | 0.12 | 82 | 1013.6 |
| 20260506235636 | 60 | 47 | 1.0 | 4.0 | 0.00 | 0.12 | 0.12 | 82 | 1013.7 |
| 20260506235126 | 60 | 47 | 1.0 | 4.0 | 0.00 | 0.12 | 0.12 | 82 | 1013.6 |
| 20260506234616 | 60 | 39 | 1.0 | 6.0 | 0.01 | 0.12 | 0.12 | 82 | 1013.6 |
| 20260506234106 | 60 | 37 | 1.0 | 6.0 | 0.03 | 0.12 | 0.12 | 81 | 1013.5 |
| 20260506233556 | 60 | 35 | 2.0 | 9.0 | 0.08 | 0.12 | 0.12 | 81 | 1013.4 |
| 20260506233047 | 60 | 31 | 2.0 | 9.0 | 0.08 | 0.12 | 0.12 | 81 | 1013.4 |
| 20260506232536 | 60 | 56 | 2.0 | 7.0 | 0.08 | 0.12 | 0.12 | 81 | 1013.4 |
| 20260506232528 | 60 | 82 | 2.0 | 6.0 | 0.08 | 0.12 | 0.12 | 81 | 1013.5 |
| 20260506231516 | 60 | 88 | 2.0 | 5.0 | 0.08 | 0.12 | 0.12 | 80 | 1013.5 |
| 20260506231016 | 60 | 91 | 2.0 | 7.0 | 0.08 | 0.12 | 0.12 | 80 | 1013.4 |
| 20260506230456 | 60 | 46 | 2.0 | 7.0 | 0.08 | 0.12 | 0.12 | 79 | 1013.1 |
| 20260506225946 | 60 | 43 | 2.0 | 7.0 | 0.08 | 0.12 | 0.12 | 78 | 1013.2 |
| 20260506225436 | 60 | 33 | 3.0 | 7.0 | 0.08 | 0.12 | 0.12 | 77 | 1013.4 |
| 20260506224926 | 60 | 7 | 4.0 | 11.0 | 0.08 | 0.12 | 0.12 | 76 | 1013.5 |
| 20260506224410 | 61 | 20 | 5.0 | 11.0 | 0.06 | 0.10 | 0.11 | 74 | 1013.2 |
| 20260506223900 | 61 | 16 | 4.0 | 12.0 | 0.00 | 0.04 | 0.05 | 71 | 1013.6 |
| 20260506223855 | 61 | 8 | 5.0 | 12.0 | 0.00 | 0.04 | 0.04 | 70 | 1013.6 |
| 20260506222846 | 61 | 50 | 4.0 | 11.0 | 0.00 | 0.04 | 0.04 | 70 | 1013.1 |
| 20260506222332 | 61 | 20 | 5.0 | 11.0 | 0.00 | 0.04 | 0.04 | 70 | 1013.2 |
| 20260506221822 | 61 | 26 | 7.0 | 13.0 | 0.00 | 0.04 | 0.04 | 69 | 1013.1 |
| 20260506221313 | 61 | 19 | 5.0 | 13.0 | 0.00 | 0.04 | 0.04 | 70 | 1013.2 |
| 20260506220802 | 61 | 22 | 5.0 | 10.0 | 0.00 | 0.04 | 0.04 | 71 | 1013.1 |
| 20260506220255 | 61 | 334 | 6.0 | 12.0 | 0.00 | 0.04 | 0.04 | 71 | 1013.1 |
| 20260506215749 | 61 | 5 | 6.0 | 12.0 | 0.00 | 0.04 | 0.04 | 69 | 1013.1 |
| 20260506215240 | 62 | 314 | 6.0 | 12.0 | 0.00 | 0.04 | 0.04 | 70 | 1013.3 |
| 20260506214728 | 61 | 15 | 5.0 | 12.0 | 0.00 | 0.04 | 0.04 | 69 | 1013.1 |
| 20260506214218 | 61 | 330 | 5.0 | 12.0 | 0.00 | 0.04 | 0.04 | 70 | 1013.1 |
| 20260506213712 | 61 | 14 | 5.0 | 12.0 | 0.00 | 0.04 | 0.04 | 69 | 1013.2 |
| 20260506213201 | 61 | 338 | 4.0 | 12.0 | 0.00 | 0.04 | 0.04 | 70 | 1013.2 |
| 20260506212654 | 61 | 25 | 4.0 | 12.0 | 0.00 | 0.04 | 0.04 | 71 | 1013.1 |
| 20260506212141 | 61 | 348 | 6.0 | 12.0 | 0.00 | 0.04 | 0.04 | 70 | 1012.9 |
| 20260506211632 | 61 | 14 | 6.0 | 12.0 | 0.00 | 0.04 | 0.04 | 70 | 1013.1 |
| 20260506211123 | 61 | 10 | 6.0 | 12.0 | 0.00 | 0.04 | 0.04 | 70 | 1013.3 |
| 20260506210619 | 60 | 5 | 5.0 | 11.0 | 0.00 | 0.04 | 0.04 | 71 | 1013.2 |
| 20260506210215 | 60 | 21 | 5.0 | 10.0 | 0.00 | 0.04 | 0.04 | 71 | 1013.2 |
| 20260506205714 | 60 | 10 | 4.0 | 9.0 | 0.00 | 0.04 | 0.04 | 71 | 1013.4 |
| 20260506204604 | 60 | 20 | 3.0 | 9.0 | 0.00 | 0.04 | 0.04 | 70 | 1013.5 |
| 20260506204103 | 60 | 26 | 4.0 | 9.0 | 0.00 | 0.04 | 0.04 | 71 | 1013.6 |
| 20260506203555 | 60 | 32 | 5.0 | 9.0 | 0.00 | 0.04 | 0.04 | 71 | 1013.6 |
| 20260506203050 | 60 | 356 | 5.0 | 9.0 | 0.00 | 0.04 | 0.04 | 71 | 1013.5 |
| 20260506202540 | 60 | 18 | 5.0 | 11.0 | 0.00 | 0.04 | 0.04 | 71 | 1013.6 |
| 20260506202036 | 60 | 267 | 6.0 | 11.0 | 0.00 | 0.04 | 0.04 | 69 | 1013.8 |
| 20260506201532 | 62 | 359 | 4.0 | 10.0 | 0.00 | 0.04 | 0.04 | 69 | 1013.9 |
| 20260506201527 | 61 | 334 | 5.0 | 11.0 | 0.00 | 0.04 | 0.04 | 69 | 1013.8 |
| 20260506200520 | 62 | 323 | 4.0 | 11.0 | 0.00 | 0.04 | 0.04 | 72 | 1013.9 |
| 20260506200013 | 61 | 4 | 4.0 | 11.0 | 0.00 | 0.04 | 0.04 | 71 | 1014.0 |
| 20260506195502 | 60 | 12 | 4.0 | 11.0 | 0.00 | 0.04 | 0.04 | 71 | 1014.2 |
| 20260506194952 | 60 | 43 | 4.0 | 10.0 | 0.00 | 0.04 | 0.04 | 72 | 1014.2 |
| 20260506194443 | 60 | 354 | 6.0 | 12.0 | 0.00 | 0.04 | 0.04 | 74 | 1014.1 |
| 20260506193934 | 59 | 336 | 6.0 | 12.0 | 0.00 | 0.04 | 0.04 | 74 | 1014.1 |
| 20260506193923 | 58 | 28 | 4.0 | 11.0 | 0.00 | 0.04 | 0.04 | 75 | 1014.3 |
| 20260506193528 | 59 | 267 | 5.0 | 11.0 | 0.00 | 0.04 | 0.04 | 73 | 1014.2 |
| 20260506192411 | 58 | 1 | 4.0 | 11.0 | 0.00 | 0.04 | 0.04 | 76 | 1014.4 |
| 20260506191904 | 58 | 325 | 4.0 | 9.0 | 0.00 | 0.04 | 0.04 | 76 | 1014.5 |
| 20260506191354 | 57 | 6 | 3.0 | 8.0 | 0.00 | 0.04 | 0.04 | 77 | 1014.5 |
| 20260506190843 | 57 | 2 | 2.0 | 8.0 | 0.00 | 0.04 | 0.04 | 77 | 1014.7 |
| 20260506190333 | 57 | 352 | 3.0 | 8.0 | 0.00 | 0.04 | 0.04 | 78 | 1014.7 |
| 20260506185823 | 57 | 334 | 3.0 | 10.0 | 0.00 | 0.04 | 0.04 | 77 | 1014.7 |
| 20260506185806 | 57 | 267 | 2.0 | 10.0 | 0.00 | 0.04 | 0.04 | 77 | 1014.7 |
| 20260506184805 | 57 | 267 | 2.0 | 7.0 | 0.00 | 0.04 | 0.04 | 77 | 1014.7 |
| 20260506184257 | 56 | 267 | 3.0 | 7.0 | 0.00 | 0.04 | 0.04 | 77 | 1014.7 |
| 20260506183745 | 56 | 24 | 3.0 | 7.0 | 0.00 | 0.04 | 0.04 | 77 | 1014.7 |
| 20260506183235 | 56 | 267 | 4.0 | 11.0 | 0.00 | 0.04 | 0.04 | 78 | 1014.7 |
| 20260506182727 | 56 | 267 | 4.0 | 11.0 | 0.00 | 0.04 | 0.04 | 77 | 1014.4 |
| 20260506182215 | 56 | 267 | 4.0 | 12.0 | 0.00 | 0.04 | 0.04 | 78 | 1014.0 |
| 20260506181705 | 56 | 30 | 6.0 | 17.0 | 0.00 | 0.04 | 0.04 | 78 | 1013.8 |
| 20260506181147 | 56 | 267 | 7.0 | 17.0 | 0.00 | 0.04 | 0.04 | 78 | 1013.5 |
| 20260506180638 | 56 | 267 | 9.0 | 17.0 | 0.00 | 0.04 | 0.04 | 79 | 1013.0 |
| 20260506180127 | 56 | 267 | 8.0 | 17.0 | 0.00 | 0.04 | 0.04 | 79 | 1013.0 |
| 20260506175617 | 56 | 267 | 7.0 | 15.0 | 0.00 | 0.04 | 0.04 | 80 | 1013.1 |
| 20260506175107 | 56 | 267 | 7.0 | 15.0 | 0.00 | 0.04 | 0.04 | 81 | 1013.4 |
| 20260506174557 | 55 | 357 | 8.0 | 15.0 | 0.00 | 0.04 | 0.04 | 82 | 1013.1 |
| 20260506174047 | 54 | 26 | 8.0 | 15.0 | 0.00 | 0.04 | 0.04 | 82 | 1013.4 |
| 20260506173537 | 54 | 33 | 6.0 | 12.0 | 0.00 | 0.04 | 0.04 | 82 | 1013.8 |
| 20260506173027 | 54 | 11 | 6.0 | 12.0 | 0.00 | 0.04 | 0.04 | 82 | 1014.1 |
| 20260506172517 | 54 | 19 | 7.0 | 14.0 | 0.00 | 0.04 | 0.04 | 83 | 1014.0 |
| 20260506172007 | 54 | 57 | 6.0 | 14.0 | 0.00 | 0.04 | 0.04 | 83 | 1014.0 |
| 20260506171449 | 54 | 23 | 6.0 | 12.0 | 0.00 | 0.04 | 0.04 | 83 | 1013.9 |
| 20260506170939 | 54 | 20 | 6.0 | 13.0 | 0.00 | 0.04 | 0.04 | 83 | 1013.9 |
| 20260506170429 | 54 | 30 | 5.0 | 13.0 | 0.00 | 0.04 | 0.04 | 83 | 1014.1 |
| 20260506170414 | 54 | 22 | 5.0 | 12.0 | 0.00 | 0.04 | 0.04 | 83 | 1014.1 |
| 20260506165403 | 54 | 76 | 6.0 | 15.0 | 0.00 | 0.04 | 0.04 | 83 | 1014.1 |
| 20260506164853 | 54 | 58 | 5.0 | 15.0 | 0.00 | 0.04 | 0.04 | 83 | 1014.1 |
| 20260506164342 | 54 | 31 | 6.0 | 14.0 | 0.00 | 0.04 | 0.04 | 83 | 1014.1 |
| 20260506163833 | 54 | 62 | 8.0 | 14.0 | 0.00 | 0.04 | 0.04 | 83 | 1013.7 |
| 20260506163323 | 54 | 350 | 6.0 | 12.0 | 0.00 | 0.04 | 0.04 | 83 | 1013.9 |
| 20260506162813 | 54 | 49 | 6.0 | 14.0 | 0.00 | 0.04 | 0.04 | 83 | 1014.0 |
| 20260506162306 | 54 | 22 | 6.0 | 14.0 | 0.00 | 0.04 | 0.04 | 83 | 1014.0 |
| 20260506161804 | 54 | 26 | 6.0 | 13.0 | 0.00 | 0.04 | 0.04 | 83 | 1014.1 |
| 20260506161253 | 54 | 37 | 6.0 | 13.0 | 0.00 | 0.04 | 0.04 | 83 | 1014.0 |
| 20260506160737 | 55 | 68 | 6.0 | 12.0 | 0.03 | 0.04 | 0.04 | 84 | 1014.0 |
| 20260506160222 | 54 | 9 | 5.0 | 11.0 | 0.04 | 0.04 | 0.04 | 83 | 1014.2 |
| 20260506155713 | 54 | 20 | 5.0 | 9.0 | 0.04 | 0.04 | 0.04 | 83 | 1014.2 |
| 20260506155203 | 54 | 347 | 4.0 | 10.0 | 0.04 | 0.04 | 0.04 | 83 | 1014.6 |
| 20260506154653 | 55 | 10 | 5.0 | 14.0 | 0.04 | 0.04 | 0.04 | 84 | 1014.0 |
| 20260506154143 | 54 | 31 | 6.0 | 14.0 | 0.04 | 0.04 | 0.04 | 83 | 1013.5 |
| 20260506153633 | 53 | 52 | 6.0 | 12.0 | 0.04 | 0.04 | 0.04 | 82 | 1013.4 |
| 20260506153123 | 53 | 91 | 7.0 | 13.0 | 0.04 | 0.04 | 0.04 | 82 | 1013.3 |
| 20260506152613 | 53 | 72 | 7.0 | 13.0 | 0.04 | 0.04 | 0.04 | 81 | 1013.2 |
| 20260506152102 | 53 | 57 | 4.0 | 12.0 | 0.04 | 0.04 | 0.04 | 81 | 1014.1 |
| 20260506151602 | 53 | 57 | 4.0 | 12.0 | 0.04 | 0.04 | 0.04 | 80 | 1015.2 |
| 20260506151224 | 54 | 24 | 3.0 | 10.0 | 0.00 | 0.00 | 0.00 | 78 | 1015.7 |
| 20260506151107 | 54 | 79 | 4.0 | 11.0 | 0.00 | 0.00 | 0.01 | 79 | 1014.1 |
| 20260506151102 | 54 | 46 | 5.0 | 12.0 | 0.03 | 0.03 | 0.03 | 80 | 1014.8 |
| 20260506145554 | 54 | 340 | 3.0 | 9.0 | 0.00 | 0.00 | 0.00 | 78 | 1015.4 |
| 20260506145044 | 54 | 359 | 3.0 | 9.0 | 0.00 | 0.00 | 0.00 | 78 | 1015.8 |
| 20260506144541 | 54 | 10 | 3.0 | 10.0 | 0.00 | 0.00 | 0.00 | 77 | 1015.3 |
| 20260506144031 | 54 | 338 | 4.0 | 14.0 | 0.00 | 0.00 | 0.00 | 77 | 1015.3 |
| 20260506143521 | 54 | 352 | 6.0 | 14.0 | 0.00 | 0.00 | 0.00 | 77 | 1015.8 |
| 20260506143011 | 54 | 18 | 8.0 | 16.0 | 0.00 | 0.00 | 0.00 | 76 | 1013.4 |
| 20260506142501 | 54 | 35 | 7.0 | 16.0 | 0.00 | 0.00 | 0.00 | 76 | 1013.8 |
| 20260506141951 | 54 | 54 | 6.0 | 14.0 | 0.00 | 0.00 | 0.00 | 76 | 1013.8 |
| 20260506141942 | 54 | 8 | 7.0 | 14.0 | 0.00 | 0.00 | 0.00 | 76 | 1014.1 |
| 20260506140931 | 54 | 359 | 7.0 | 13.0 | 0.00 | 0.00 | 0.00 | 76 | 1014.3 |
| 20260506140424 | 54 | 357 | 6.0 | 13.0 | 0.00 | 0.00 | 0.00 | 76 | 1014.2 |
| 20260506135922 | 54 | 350 | 6.0 | 13.0 | 0.00 | 0.00 | 0.00 | 75 | 1013.9 |
| 20260506135421 | 54 | 18 | 5.0 | 12.0 | 0.00 | 0.00 | 0.00 | 75 | 1014.1 |
| 20260506134911 | 54 | 353 | 5.0 | 11.0 | 0.00 | 0.00 | 0.00 | 75 | 1014.0 |
| 20260506134401 | 54 | 26 | 7.0 | 16.0 | 0.00 | 0.00 | 0.00 | 75 | 1013.5 |
| 20260506134352 | 54 | 30 | 8.0 | 15.0 | 0.00 | 0.00 | 0.00 | 75 | 1013.4 |
| 20260506133340 | 54 | 40 | 7.0 | 15.0 | 0.00 | 0.00 | 0.00 | 74 | 1013.6 |
| 20260506132831 | 54 | 357 | 7.0 | 17.0 | 0.00 | 0.00 | 0.00 | 74 | 1013.3 |
| 20260506132320 | 54 | 7 | 7.0 | 17.0 | 0.00 | 0.00 | 0.00 | 74 | 1013.3 |
| 20260506131809 | 54 | 29 | 8.0 | 17.0 | 0.00 | 0.00 | 0.00 | 74 | 1013.2 |
| 20260506131259 | 54 | 37 | 8.0 | 17.0 | 0.00 | 0.00 | 0.00 | 73 | 1013.1 |
| 20260506130747 | 55 | 20 | 8.0 | 14.0 | 0.00 | 0.00 | 0.00 | 73 | 1012.9 |
| 20260506130738 | 55 | 12 | 8.0 | 14.0 | 0.00 | 0.00 | 0.00 | 72 | 1012.7 |
| 20260506125729 | 55 | 33 | 7.0 | 16.0 | 0.00 | 0.00 | 0.00 | 72 | 1012.8 |
| 20260506125219 | 55 | 359 | 7.0 | 16.0 | 0.00 | 0.00 | 0.00 | 72 | 1012.8 |
| 20260506124709 | 55 | 20 | 6.0 | 10.0 | 0.00 | 0.00 | 0.00 | 72 | 1012.7 |
| 20260506124201 | 55 | 9 | 6.0 | 11.0 | 0.00 | 0.00 | 0.00 | 71 | 1012.8 |
| 20260506123653 | 55 | 355 | 6.0 | 12.0 | 0.00 | 0.00 | 0.00 | 71 | 1012.6 |
| 20260506123147 | 55 | 23 | 7.0 | 14.0 | 0.00 | 0.00 | 0.00 | 72 | 1012.7 |
| 20260506122646 | 55 | 10 | 8.0 | 18.0 | 0.00 | 0.00 | 0.00 | 71 | 1012.6 |
| 20260506122136 | 55 | 31 | 8.0 | 18.0 | 0.00 | 0.00 | 0.00 | 71 | 1012.3 |
| 20260506121631 | 56 | 21 | 7.0 | 13.0 | 0.00 | 0.00 | 0.00 | 71 | 1012.3 |
| 20260506121126 | 56 | 355 | 7.0 | 16.0 | 0.00 | 0.00 | 0.00 | 71 | 1012.3 |
| 20260506120625 | 56 | 5 | 6.0 | 16.0 | 0.00 | 0.00 | 0.00 | 71 | 1012.4 |
| 20260506120124 | 56 | 354 | 4.0 | 13.0 | 0.00 | 0.00 | 0.00 | 71 | 1012.2 |
| 20260506115626 | 56 | 9 | 5.0 | 13.0 | 0.00 | 0.00 | 0.00 | 71 | 1012.2 |
| 20260506115119 | 56 | 12 | 5.0 | 13.0 | 0.00 | 0.00 | 0.00 | 71 | 1012.3 |
| 20260506114615 | 56 | 328 | 4.0 | 12.0 | 0.00 | 0.00 | 0.00 | 71 | 1012.1 |
| 20260506114111 | 56 | 349 | 5.0 | 12.0 | 0.00 | 0.00 | 0.00 | 71 | 1012.0 |
| 20260506113602 | 56 | 19 | 5.0 | 12.0 | 0.00 | 0.00 | 0.00 | 71 | 1012.0 |
| 20260506113055 | 56 | 10 | 5.0 | 10.0 | 0.00 | 0.00 | 0.00 | 71 | 1011.6 |
| 20260506112551 | 57 | 9 | 5.0 | 16.0 | 0.00 | 0.00 | 0.00 | 71 | 1011.7 |
| 20260506112042 | 57 | 22 | 5.0 | 16.0 | 0.00 | 0.00 | 0.00 | 71 | 1011.7 |
| 20260506111539 | 57 | 8 | 6.0 | 14.0 | 0.00 | 0.00 | 0.00 | 71 | 1011.4 |
| 20260506111036 | 57 | 353 | 5.0 | 14.0 | 0.00 | 0.00 | 0.00 | 71 | 1011.4 |
| 20260506110532 | 57 | 340 | 5.0 | 13.0 | 0.00 | 0.00 | 0.00 | 71 | 1011.4 |
| 20260506110028 | 57 | 359 | 5.0 | 11.0 | 0.00 | 0.00 | 0.00 | 71 | 1011.5 |
| 20260506105527 | 57 | 338 | 5.0 | 14.0 | 0.00 | 0.00 | 0.00 | 71 | 1011.2 |
| 20260506105521 | 57 | 318 | 6.0 | 11.0 | 0.00 | 0.00 | 0.00 | 71 | 1011.2 |
| 20260506104512 | 58 | 353 | 6.0 | 14.0 | 0.00 | 0.00 | 0.00 | 71 | 1011.1 |
| 20260506104002 | 58 | 18 | 6.0 | 13.0 | 0.00 | 0.00 | 0.00 | 71 | 1011.1 |
| 20260506103455 | 58 | 1 | 6.0 | 13.0 | 0.00 | 0.00 | 0.00 | 71 | 1010.8 |
| 20260506102952 | 58 | 22 | 5.0 | 11.0 | 0.00 | 0.00 | 0.00 | 71 | 1010.6 |
| 20260506102945 | 58 | 2 | 5.0 | 11.0 | 0.00 | 0.00 | 0.00 | 71 | 1010.5 |
| 20260506101934 | 58 | 1 | 6.0 | 12.0 | 0.00 | 0.00 | 0.00 | 71 | 1010.4 |
| 20260506101428 | 58 | 10 | 6.0 | 15.0 | 0.00 | 0.00 | 0.00 | 71 | 1010.4 |
| 20260506100919 | 58 | 22 | 6.0 | 15.0 | 0.00 | 0.00 | 0.00 | 71 | 1010.3 |
| 20260506100414 | 59 | 18 | 5.0 | 14.0 | 0.00 | 0.00 | 0.00 | 71 | 1010.2 |
| 20260506100408 | 59 | 345 | 3.0 | 9.0 | 0.00 | 0.00 | 0.00 | 71 | 1010.2 |
| 20260506095358 | 59 | 2 | 4.0 | 9.0 | 0.00 | 0.00 | 0.00 | 71 | 1010.0 |
| 20260506094850 | 59 | 5 | 4.0 | 9.0 | 0.00 | 0.00 | 0.00 | 71 | 1010.0 |
| 20260506094340 | 59 | 353 | 4.0 | 9.0 | 0.00 | 0.00 | 0.00 | 71 | 1010.1 |
| 20260506094331 | 59 | 8 | 4.0 | 9.0 | 0.00 | 0.00 | 0.00 | 71 | 1010.0 |
| 20260506093320 | 60 | 18 | 4.0 | 12.0 | 0.00 | 0.00 | 0.00 | 71 | 1009.9 |
| 20260506092810 | 60 | 22 | 4.0 | 12.0 | 0.00 | 0.00 | 0.00 | 71 | 1009.9 |
| 20260506092752 | 59 | 12 | 5.0 | 12.0 | 0.00 | 0.00 | 0.00 | 71 | 1009.8 |
| 20260506092356 | 60 | 11 | 5.0 | 12.0 | 0.00 | 0.00 | 0.00 | 72 | 1009.8 |
| 20260506091240 | 60 | 28 | 5.0 | 11.0 | 0.00 | 0.00 | 0.00 | 71 | 1009.9 |
| 20260506091231 | 60 | 14 | 6.0 | 10.0 | 0.00 | 0.00 | 0.00 | 71 | 1009.9 |
| 20260506090220 | 60 | 37 | 6.0 | 12.0 | 0.00 | 0.00 | 0.00 | 71 | 1009.8 |
| 20260506090211 | 60 | 16 | 5.0 | 11.0 | 0.00 | 0.00 | 0.00 | 71 | 1009.9 |
| 20260506085200 | 60 | 20 | 4.0 | 10.0 | 0.00 | 0.00 | 0.00 | 71 | 1009.8 |
| 20260506084650 | 60 | 5 | 5.0 | 11.0 | 0.00 | 0.00 | 0.00 | 71 | 1009.7 |
| 20260506084140 | 60 | 26 | 5.0 | 11.0 | 0.00 | 0.00 | 0.00 | 71 | 1009.6 |
| 20260506083630 | 60 | 42 | 5.0 | 11.0 | 0.00 | 0.00 | 0.00 | 71 | 1009.5 |
| 20260506083120 | 60 | 353 | 5.0 | 11.0 | 0.00 | 0.00 | 0.00 | 71 | 1009.5 |
| 20260506083111 | 61 | 24 | 6.0 | 11.0 | 0.00 | 0.00 | 0.00 | 71 | 1009.4 |
| 20260506082556 | 61 | 55 | 6.0 | 11.0 | 0.00 | 0.00 | 0.00 | 71 | 1009.5 |
| 20260506081554 | 61 | 6 | 5.0 | 11.0 | 0.00 | 0.00 | 0.00 | 71 | 1009.5 |
| 20260506081044 | 61 | 28 | 5.0 | 10.0 | 0.00 | 0.00 | 0.00 | 72 | 1009.4 |
| 20260506081035 | 61 | 356 | 6.0 | 11.0 | 0.00 | 0.00 | 0.00 | 71 | 1009.3 |
| 20260506073449 | 62 | 40 | 3.0 | 9.0 | 0.00 | 0.00 | 0.00 | 72 | 1009.1 |
| 20260506072948 | 62 | 6 | 4.0 | 10.0 | 0.00 | 0.00 | 0.00 | 72 | 1009.2 |
| 20260506072445 | 62 | 11 | 4.0 | 11.0 | 0.00 | 0.00 | 0.00 | 72 | 1009.3 |
| 20260506071946 | 62 | 15 | 5.0 | 10.0 | 0.00 | 0.00 | 0.00 | 72 | 1009.1 |
| 20260506071436 | 62 | 27 | 5.0 | 11.0 | 0.00 | 0.00 | 0.00 | 73 | 1009.2 |
| 20260506070926 | 62 | 35 | 4.0 | 10.0 | 0.00 | 0.00 | 0.00 | 73 | 1009.3 |
| 20260506070416 | 62 | 33 | 6.0 | 11.0 | 0.00 | 0.00 | 0.00 | 73 | 1009.2 |
| 20260506062254 | 63 | 15 | 6.0 | 12.0 | 0.00 | 0.00 | 0.00 | 71 | 1009.0 |
| 20260506061742 | 63 | 19 | 6.0 | 12.0 | 0.00 | 0.00 | 0.00 | 72 | 1009.1 |
| 20260506061733 | 62 | 357 | 7.0 | 12.0 | 0.00 | 0.00 | 0.00 | 72 | 1009.1 |
| 20260506060722 | 63 | 30 | 7.0 | 12.0 | 0.00 | 0.00 | 0.00 | 72 | 1009.0 |
| 20260506060212 | 63 | 5 | 6.0 | 13.0 | 0.00 | 0.00 | 0.00 | 71 | 1009.2 |
| 20260506051024 | 65 | 288 | 5.0 | 11.0 | 0.00 | 0.00 | 0.00 | 70 | 1009.2 |
| 20260506050514 | 65 | 12 | 4.0 | 9.0 | 0.00 | 0.00 | 0.00 | 70 | 1009.1 |
| 20260506044453 | 67 | 6 | 5.0 | 12.0 | 0.00 | 0.00 | 0.00 | 69 | 1008.9 |
| 20260506043951 | 67 | 357 | 6.0 | 12.0 | 0.00 | 0.00 | 0.00 | 69 | 1008.9 |
| 20260506043946 | 67 | 28 | 6.0 | 16.0 | 0.00 | 0.00 | 0.00 | 69 | 1009.0 |
| 20260506042937 | 67 | 332 | 7.0 | 16.0 | 0.00 | 0.00 | 0.00 | 69 | 1009.1 |
| 20260506042428 | 67 | 53 | 7.0 | 16.0 | 0.00 | 0.00 | 0.00 | 69 | 1009.0 |
| 20260506041914 | 68 | 25 | 7.0 | 16.0 | 0.00 | 0.00 | 0.00 | 68 | 1009.0 |
| 20260506041409 | 68 | 20 | 5.0 | 13.0 | 0.00 | 0.00 | 0.00 | 68 | 1008.9 |
| 20260506040906 | 69 | 6 | 5.0 | 11.0 | 0.00 | 0.00 | 0.00 | 68 | 1008.8 |
| 20260506040402 | 69 | 320 | 4.0 | 11.0 | 0.00 | 0.00 | 0.00 | 68 | 1008.8 |
| 20260506035850 | 69 | 7 | 3.0 | 9.0 | 0.00 | 0.00 | 0.00 | 68 | 1008.7 |
| 20260506035345 | 69 | 338 | 5.0 | 12.0 | 0.00 | 0.00 | 0.00 | 68 | 1008.4 |
| 20260506034839 | 69 | 10 | 6.0 | 12.0 | 0.00 | 0.00 | 0.00 | 68 | 1008.0 |
| 20260506034330 | 69 | 22 | 7.0 | 14.0 | 0.00 | 0.00 | 0.00 | 68 | 1008.3 |
| 20260506033825 | 69 | 13 | 7.0 | 14.0 | 0.00 | 0.00 | 0.00 | 67 | 1008.3 |
| 20260506033818 | 69 | 24 | 6.0 | 12.0 | 0.00 | 0.00 | 0.00 | 67 | 1008.2 |
| 20260506032806 | 69 | 28 | 7.0 | 14.0 | 0.00 | 0.00 | 0.00 | 66 | 1008.0 |
| 20260506032754 | 70 | 10 | 7.0 | 13.0 | 0.00 | 0.00 | 0.00 | 65 | 1007.8 |
| 20260506032359 | 69 | 6 | 7.0 | 14.0 | 0.00 | 0.00 | 0.00 | 65 | 1007.9 |
| 20260506031241 | 70 | 42 | 6.0 | 11.0 | 0.00 | 0.00 | 0.00 | 64 | 1007.7 |
| 20260506030733 | 71 | 0 | 5.0 | 11.0 | 0.00 | 0.00 | 0.00 | 63 | 1007.9 |
| 20260506030225 | 71 | 39 | 6.0 | 14.0 | 0.00 | 0.00 | 0.00 | 63 | 1007.6 |
| 20260506030218 | 71 | 44 | 6.0 | 14.0 | 0.00 | 0.00 | 0.00 | 63 | 1007.6 |
| 20260506025207 | 71 | 313 | 6.0 | 14.0 | 0.00 | 0.00 | 0.00 | 64 | 1007.7 |
| 20260506024657 | 71 | 12 | 5.0 | 14.0 | 0.00 | 0.00 | 0.00 | 64 | 1007.5 |
| 20260506024146 | 71 | 355 | 5.0 | 14.0 | 0.00 | 0.00 | 0.00 | 64 | 1007.4 |
| 20260506023636 | 71 | 48 | 7.0 | 14.0 | 0.00 | 0.00 | 0.00 | 64 | 1007.3 |
| 20260506023631 | 72 | 29 | 7.0 | 17.0 | 0.00 | 0.00 | 0.00 | 64 | 1007.2 |
| 20260506022115 | 73 | 8 | 6.0 | 12.0 | 0.00 | 0.00 | 0.00 | 63 | 1006.9 |
| 20260506022107 | 73 | 7 | 6.0 | 12.0 | 0.00 | 0.00 | 0.00 | 63 | 1006.8 |
| 20260506021056 | 73 | 325 | 7.0 | 14.0 | 0.00 | 0.00 | 0.00 | 64 | 1006.7 |
| 20260506021046 | 73 | 7 | 6.0 | 14.0 | 0.00 | 0.00 | 0.00 | 63 | 1006.5 |
| 20260506020036 | 74 | 5 | 5.0 | 11.0 | 0.00 | 0.00 | 0.00 | 62 | 1006.1 |
| 20260506015527 | 74 | 351 | 6.0 | 11.0 | 0.00 | 0.00 | 0.00 | 62 | 1006.1 |
| 20260506015030 | 74 | 37 | 5.0 | 11.0 | 0.00 | 0.00 | 0.00 | 62 | 1005.9 |
| 20260506015026 | 74 | 9 | 6.0 | 11.0 | 0.00 | 0.00 | 0.00 | 62 | 1005.7 |
| 20260506014026 | 75 | 53 | 4.0 | 11.0 | 0.00 | 0.00 | 0.00 | 62 | 1006.0 |
| 20260506013516 | 75 | 32 | 5.0 | 11.0 | 0.00 | 0.00 | 0.00 | 61 | 1005.7 |
| 20260506013007 | 76 | 40 | 6.0 | 13.0 | 0.00 | 0.00 | 0.00 | 61 | 1005.7 |
| 20260506012446 | 76 | 23 | 6.0 | 15.0 | 0.00 | 0.00 | 0.00 | 61 | 1005.3 |
| 20260506011946 | 76 | 9 | 6.0 | 15.0 | 0.00 | 0.00 | 0.00 | 60 | 1005.2 |
| 20260506011436 | 77 | 30 | 7.0 | 18.0 | 0.00 | 0.00 | 0.00 | 60 | 1005.2 |
| 20260506010926 | 77 | 41 | 7.0 | 18.0 | 0.00 | 0.00 | 0.00 | 60 | 1005.4 |
| 20260506010416 | 78 | 27 | 6.0 | 11.0 | 0.00 | 0.00 | 0.00 | 59 | 1005.4 |
| 20260506005905 | 78 | 17 | 6.0 | 11.0 | 0.00 | 0.00 | 0.00 | 58 | 1005.3 |
| 20260506005356 | 79 | 35 | 5.0 | 11.0 | 0.00 | 0.00 | 0.00 | 58 | 1005.1 |
| 20260506004846 | 79 | 352 | 4.0 | 10.0 | 0.00 | 0.00 | 0.00 | 58 | 1005.0 |
| 20260506004336 | 79 | 15 | 4.0 | 11.0 | 0.00 | 0.00 | 0.00 | 58 | 1004.7 |